This is the latest recevied weather packets stored in our database for station/object OE7AOT-10. If no packets are shown the sender has not sent any weather packets the latest 10 day(s).
| Time | Temp. | Humidity | Pressure | Rain* | Wind** | Luminosity | Snow |
|---|---|---|---|---|---|---|---|
| 1778078171 | 24.44° C | 28% | 1013.6 hPa | - | - | - | - |
| 1778077271 | 24.44° C | 29% | 1013.6 hPa | - | - | - | - |
| 1778076371 | 24.44° C | 30% | 1013.7 hPa | - | - | - | - |
| 1778075471 | 24.44° C | 30% | 1013.7 hPa | - | - | - | - |
| 1778074571 | 24.44° C | 32% | 1013.9 hPa | - | - | - | - |
| 1778073671 | 24.44° C | 32% | 1013.9 hPa | - | - | - | - |
| 1778072771 | 23.89° C | 32% | 1013.9 hPa | - | - | - | - |
| 1778071870 | 23.33° C | 32% | 1014.1 hPa | - | - | - | - |
| 1778070970 | 23.33° C | 31% | 1014.1 hPa | - | - | - | - |
| 1778070070 | 22.78° C | 30% | 1014.3 hPa | - | - | - | - |
| 1778069170 | 22.78° C | 30% | 1014.3 hPa | - | - | - | - |
| 1778068270 | 22.78° C | 30% | 1014.5 hPa | - | - | - | - |
| 1778067370 | 23.33° C | 30% | 1014.5 hPa | - | - | - | - |
| 1778066470 | 23.33° C | 30% | 1014.5 hPa | - | - | - | - |
| 1778065569 | 23.33° C | 30% | 1014.8 hPa | - | - | - | - |
| 1778064669 | 23.33° C | 30% | 1015 hPa | - | - | - | - |
| 1778063769 | 23.89° C | 29% | 1015.1 hPa | - | - | - | - |
| 1778062869 | 24.44° C | 32% | 1015.4 hPa | - | - | - | - |
| 1778061969 | 23.89° C | 32% | 1015.7 hPa | - | - | - | - |
| 1778061069 | 23.89° C | 32% | 1015.8 hPa | - | - | - | - |
| 1778060168 | 23.89° C | 33% | 1016 hPa | - | - | - | - |
| 1778059268 | 23.89° C | 32% | 1015.9 hPa | - | - | - | - |
| 1778058367 | 23.89° C | 32% | 1015.9 hPa | - | - | - | - |
| 1778057467 | 23.89° C | 33% | 1016 hPa | - | - | - | - |
| 1778056567 | 23.33° C | 33% | 1015.8 hPa | - | - | - | - |
* Rain since midnight (hover to see other rain measurements)
** Current wind speed in m/s (hover to see current wind gust speed)